User: anonymous   Login
Location: West Cummington
(42.4920°N, 72.9680°W)
Time: 10:38:12
(UTC-04:00)
Language:

Cosmos 841 Rocket - Orbit

View from above orbital plane
View from above orbital plane
View from above satellite
View from above satellite

Ground track
Ground track

The orbit data is extracted from the following two-line orbital elements,

1 09023U 76069B   16209.91759037  .00000011  00000-0  12078-4 0  9995
2 09023  74.0450 335.1994 0018196 223.4455 136.5267 14.39502002 98160
Epoch (UTC): 27 July 2016 22:01:19
Eccentricity: 0.0018196
inclination: 74.0450°
perigee height: 747 km
apogee height: 773 km
right ascension of ascending node: 335.1994°
argument of perigee: 223.4455°
revolutions per day: 14.39502002
mean anomaly at epoch: 136.5267°
orbit number at epoch: 9816

The dashed part of the orbit path shows where the satellite is in the earth's shadow,  

DLR